This is the latest recevied weather packets stored in our database for station/object KG7KID-5. If no packets are shown the sender has not sent any weather packets the latest 10 day(s).
| Time | Temp. | Humidity | Pressure | Rain* | Wind** | Luminosity | Snow |
|---|---|---|---|---|---|---|---|
| 1778340614 | 23.89° C | 17% | 929.6 hPa | 0 mm | - | - | - |
| 1778340571 | 23.89° C | 17% | 929.6 hPa | 0 mm | - | - | - |
| 1778281609 | 34.44° C | 9% | 924.6 hPa | 0 mm | - | - | - |
| 1778281309 | 34.44° C | 9% | 924.6 hPa | 0 mm | - | - | - |
| 1778278604 | 34.44° C | 8% | 925 hPa | 0 mm | - | - | - |
| 1778278366 | 35° C | 8% | 925 hPa | 0 mm | - | - | - |
| 1778278304 | 35° C | 8% | 925 hPa | 0 mm | - | - | - |
| 1778277441 | 35° C | 8% | 925.1 hPa | 0 mm | - | - | - |
| 1778277399 | 35° C | 8% | 925.1 hPa | 0 mm | - | - | - |
| 1778274689 | 34.44° C | 8% | 925.9 hPa | 0 mm | - | - | - |
| 1778273182 | 34.44° C | 7% | 926.2 hPa | 0 mm | - | - | - |
| 1778259690 | 25.56° C | 14% | 930.1 hPa | 0 mm | - | - | - |
| 1778259613 | 25.56° C | 14% | 930.1 hPa | 0 mm | - | - | - |
| 1778259313 | 26.11° C | 15% | 930.2 hPa | 0 mm | - | - | - |
| 1778259012 | 26.11° C | 14% | 930.3 hPa | 0 mm | - | - | - |
| 1778258712 | 26.11° C | 13% | 930.4 hPa | 0 mm | - | - | - |
| 1778258412 | 25.56° C | 14% | 930.4 hPa | 0 mm | - | - | - |
| 1778258144 | 25.56° C | 13% | 930.4 hPa | 0 mm | - | - | - |
| 1778258113 | 25.56° C | 13% | 930.4 hPa | 0 mm | - | - | - |
| 1778257513 | 24.44° C | 14% | 930.6 hPa | 0 mm | - | - | - |
| 1778256652 | 23.33° C | 15% | 930.7 hPa | 0 mm | - | - | - |
| 1778256613 | 23.33° C | 15% | 930.7 hPa | 0 mm | - | - | - |
| 1778256343 | 23.33° C | 15% | 930.7 hPa | 0 mm | - | - | - |
| 1778256312 | 23.33° C | 15% | 930.7 hPa | 0 mm | - | - | - |
| 1778256078 | 23.33° C | 15% | 930.9 hPa | 0 mm | - | - | - |
* Rain latest hour (hover to see other rain measurements)
** Current wind speed in m/s (hover to see current wind gust speed)